Location: El Centro
(32.7920°N, 115.5620°W)
Time: 19:54:59
(UTC-07:00)

Hamsat - Visible Passes

Search period start: 27 May 2017 00:00
Search period end: 06 June 2017 00:00
Orbit: 586 x 618 km, 97.6° (Epoch: 27 May)

Date Brightness Start Highest point End Pass type
(mag) Time Alt. Az. Time Alt. Az. Time Alt. Az.
27 May ? 04:27:17 10° NNE 04:31:22 49° E 04:35:23 10° S visible
28 May ? 04:38:56 10° NNE 04:43:07 71° E 04:47:15 10° S visible
29 May ? 04:50:39 10° N 04:54:50 81° WNW 04:58:59 10° SSW visible
30 May ? 05:02:27 10° N 05:06:33 56° WNW 05:10:36 10° SSW visible
31 May ? 03:40:37 10° ENE 03:42:20 12° E 03:44:02 10° ESE visible
01 Jun ? 03:51:23 10° NE 03:54:09 17° E 03:56:54 10° SE visible
02 Jun ? 04:02:34 10° NE 04:05:57 24° E 04:09:19 10° SSE visible
03 Jun ? 04:13:57 10° NNE 04:17:44 33° E 04:21:29 10° SSE visible
04 Jun ? 04:25:28 10° NNE 04:29:30 47° E 04:33:28 10° S visible
05 Jun ? 04:37:05 10° NNE 04:41:14 68° E 04:45:20 10° S visible
